Location: Artiguedieu
(43.5000°N, 0.5454°E)
Time: 06:30:43
(UTC+00:00)

Cosmos 1862 Rocket - Pass Details

Date: 06 December 2020
Orbit: 603 x 635 km, 82.5° (Epoch: 19 January)

Event Time Altitude Azimuth Distance (km) Brightness Sun altitude
Rises 05:32:19 0° 356° (N) 2,922 6.8 -18.2°
Reaches altitude 10° 05:34:38 10° 2° (N) 2,005 6.0 -17.8°
Maximum altitude 05:38:57 50° 78° (ENE) 797 4.5 -17.0°
Drops below altitude 10° 05:43:11 10° 154° (SSE) 1,970 6.7 -16.3°
Sets 05:45:27 0° 160° (SSE) 2,864 7.5 -15.9°
